GEFSNE_prec_meanprecacc_096.txt.gz
Total_Precipitation_Accumulation
0.24 0.26 0.29 0.28 0.27 0.27 0.31 0.42 0.57 0.41 0.11 0.03 0.05 0.08 0.12 0.15 0.21 0.27 0.27 0.32 0.37 0.41 0.49 0.55 0.57 0.58 0.71 1.02 1.72 2.56 3.17 3.24 2.89 2.35 2.02 2.08 2.28 2.64
0.27 0.31 0.33 0.33 0.32 0.31 0.33 0.35 0.46 0.57 0.34 0.07 0.06 0.09 0.13 0.16 0.21 0.25 0.24 0.30 0.34 0.38 0.39 0.42 0.48 0.55 0.62 0.74 1.01 1.66 2.40 2.99 3.18 3.01 2.67 2.49 2.56 2.82
0.32 0.36 0.35 0.36 0.40 0.40 0.39 0.40 0.39 0.47 0.46 0.12 0.05 0.08 0.16 0.22 0.21 0.22 0.23 0.24 0.27 0.34 0.37 0.36 0.38 0.44 0.51 0.59 0.71 1.04 1.68 2.32 2.88 3.20 3.26 3.07 2.94 2.88
0.43 0.43 0.42 0.42 0.44 0.45 0.49 0.48 0.43 0.41 0.47 0.29 0.09 0.08 0.14 0.23 0.26 0.25 0.24 0.22 0.23 0.28 0.33 0.36 0.37 0.40 0.44 0.51 0.58 0.69 1.05 1.59 2.17 2.68 3.01 3.01 2.92 3.04
0.49 0.53 0.53 0.53 0.53 0.51 0.55 0.56 0.52 0.45 0.45 0.42 0.21 0.12 0.16 0.23 0.29 0.29 0.28 0.27 0.26 0.29 0.30 0.35 0.40 0.43 0.43 0.45 0.49 0.56 0.66 0.92 1.34 1.97 2.57 2.81 2.78 2.77
0.53 0.57 0.61 0.66 0.67 0.68 0.72 0.70 0.66 0.61 0.52 0.46 0.34 0.24 0.24 0.27 0.33 0.34 0.31 0.30 0.34 0.34 0.33 0.33 0.38 0.42 0.44 0.41 0.37 0.40 0.52 0.77 1.07 1.44 1.97 2.39 2.51 2.51
0.55 0.58 0.62 0.70 0.84 0.98 1.07 0.99 0.83 0.77 0.68 0.59 0.47 0.36 0.33 0.36 0.44 0.42 0.41 0.34 0.38 0.44 0.41 0.34 0.32 0.31 0.35 0.42 0.45 0.45 0.46 0.55 0.74 1.05 1.46 1.92 2.24 2.30
0.50 0.48 0.49 0.55 0.64 0.75 0.89 0.88 0.81 0.89 0.91 0.79 0.65 0.56 0.45 0.43 0.50 0.57 0.58 0.54 0.47 0.45 0.46 0.44 0.40 0.39 0.37 0.36 0.46 0.47 0.50 0.54 0.60 0.77 1.08 1.45 1.84 2.15
0.35 0.36 0.36 0.40 0.46 0.46 0.55 0.56 0.60 0.67 0.79 0.87 0.87 0.73 0.61 0.54 0.61 0.68 0.71 0.69 0.53 0.51 0.56 0.62 0.60 0.53 0.49 0.49 0.54 0.49 0.50 0.54 0.60 0.68 0.80 1.07 1.43 1.81
0.29 0.33 0.33 0.35 0.40 0.49 0.54 0.48 0.43 0.45 0.59 0.75 0.92 0.88 0.78 0.76 0.86 0.95 0.96 0.92 0.80 0.72 0.69 0.79 0.80 0.74 0.68 0.63 0.60 0.52 0.49 0.47 0.51 0.61 0.73 0.88 1.10 1.42
0.25 0.32 0.35 0.32 0.37 0.46 0.51 0.46 0.36 0.34 0.38 0.54 0.70 0.79 0.81 0.87 1.00 1.14 1.13 1.10 1.12 1.12 0.99 0.93 0.93 0.88 0.86 0.84 0.75 0.65 0.55 0.48 0.45 0.50 0.62 0.78 0.97 1.20
0.19 0.27 0.40 0.41 0.37 0.38 0.42 0.42 0.39 0.34 0.28 0.27 0.31 0.41 0.53 0.65 0.83 1.05 1.15 1.15 1.17 1.28 1.24 1.09 1.09 1.02 1.05 0.98 0.81 0.67 0.58 0.56 0.50 0.46 0.51 0.63 0.81 1.01
0.22 0.27 0.34 0.37 0.32 0.31 0.33 0.37 0.41 0.32 0.25 0.22 0.21 0.23 0.33 0.48 0.65 0.90 1.09 1.16 1.16 1.20 1.18 1.12 1.18 1.11 1.02 1.00 0.87 0.73 0.62 0.54 0.46 0.45 0.47 0.55 0.69 0.81
0.27 0.23 0.28 0.29 0.24 0.24 0.24 0.27 0.25 0.23 0.25 0.21 0.18 0.18 0.24 0.37 0.50 0.67 0.90 1.01 1.07 1.09 1.04 1.04 1.10 1.01 0.91 0.84 0.84 0.83 0.73 0.64 0.52 0.42 0.39 0.52 0.64 0.76
0.31 0.35 0.27 0.19 0.16 0.15 0.16 0.18 0.19 0.21 0.27 0.23 0.16 0.14 0.19 0.28 0.36 0.46 0.63 0.81 0.89 0.93 0.97 0.97 1.05 1.02 0.94 0.83 0.74 0.74 0.78 0.81 0.68 0.54 0.46 0.42 0.46 0.57
0.26 0.29 0.27 0.17 0.13 0.10 0.09 0.11 0.15 0.20 0.22 0.20 0.14 0.11 0.13 0.19 0.28 0.38 0.50 0.66 0.79 0.86 0.92 0.98 1.10 1.21 1.13 0.90 0.78 0.75 0.71 0.80 0.78 0.64 0.53 0.46 0.44 0.45
0.31 0.27 0.25 0.20 0.17 0.14 0.10 0.08 0.10 0.14 0.18 0.17 0.14 0.14 0.14 0.17 0.23 0.30 0.43 0.55 0.69 0.78 0.88 1.02 1.14 1.24 1.36 1.28 1.09 0.91 0.76 0.69 0.70 0.67 0.59 0.54 0.54 0.52
0.31 0.28 0.21 0.16 0.13 0.12 0.10 0.09 0.08 0.10 0.11 0.13 0.14 0.14 0.15 0.17 0.20 0.25 0.34 0.47 0.59 0.67 0.76 0.93 1.08 1.18 1.39 1.61 1.48 1.11 0.86 0.76 0.75 0.73 0.64 0.57 0.60 0.63
0.25 0.19 0.14 0.12 0.12 0.10 0.09 0.08 0.07 0.06 0.08 0.10 0.12 0.12 0.13 0.15 0.18 0.23 0.29 0.38 0.49 0.58 0.69 0.83 0.97 1.11 1.20 1.40 1.62 1.37 1.04 0.87 0.82 0.84 0.79 0.62 0.56 0.60
0.18 0.14 0.12 0.11 0.10 0.10 0.09 0.08 0.08 0.07 0.09 0.09 0.10 0.10 0.12 0.14 0.17 0.20 0.25 0.35 0.43 0.51 0.59 0.72 0.91 1.07 1.13 1.09 1.20 1.35 1.33 1.05 0.87 0.87 0.90 0.81 0.73 0.78
0.12 0.12 0.11 0.12 0.11 0.10 0.09 0.08 0.08 0.08 0.07 0.07 0.08 0.09 0.11 0.13 0.16 0.17 0.21 0.29 0.38 0.46 0.54 0.62 0.77 0.94 1.12 1.13 1.10 1.14 1.28 1.35 1.11 0.90 0.87 0.87 0.90 0.92
0.11 0.12 0.11 0.11 0.11 0.11 0.10 0.09 0.09 0.08 0.07 0.07 0.07 0.08 0.09 0.12 0.15 0.16 0.20 0.26 0.33 0.41 0.49 0.55 0.63 0.80 1.07 1.24 1.24 1.16 1.17 1.33 1.45 1.28 1.03 0.85 0.81 0.84
0.14 0.14 0.13 0.12 0.12 0.11 0.11 0.10 0.09 0.07 0.06 0.07 0.07 0.07 0.08 0.10 0.12 0.15 0.18 0.23 0.30 0.36 0.43 0.51 0.59 0.74 1.02 1.21 1.29 1.24 1.17 1.17 1.23 1.29 1.37 1.18 0.87 0.74

GEFSNE_prec_meanprecacc_102.txt.gz
Total_Precipitation_Accumulation
0.24 0.26 0.29 0.28 0.27 0.27 0.31 0.42 0.57 0.41 0.11 0.03 0.05 0.08 0.12 0.15 0.21 0.27 0.27 0.32 0.37 0.41 0.49 0.55 0.57 0.58 0.71 1.02 1.72 2.56 3.18 3.24 2.90 2.37 2.04 2.10 2.30 2.67
0.27 0.31 0.33 0.33 0.32 0.31 0.33 0.35 0.46 0.57 0.35 0.07 0.06 0.09 0.14 0.16 0.21 0.25 0.24 0.30 0.34 0.38 0.39 0.42 0.49 0.56 0.62 0.74 1.01 1.66 2.41 3.00 3.19 3.02 2.68 2.51 2.58 2.84
0.32 0.36 0.35 0.36 0.40 0.40 0.39 0.40 0.39 0.47 0.47 0.13 0.05 0.08 0.16 0.22 0.22 0.23 0.23 0.24 0.27 0.34 0.37 0.36 0.39 0.44 0.52 0.60 0.72 1.05 1.69 2.33 2.90 3.21 3.28 3.09 2.96 2.91
0.43 0.43 0.42 0.42 0.44 0.45 0.49 0.48 0.43 0.41 0.47 0.29 0.09 0.08 0.14 0.23 0.26 0.26 0.24 0.23 0.23 0.29 0.33 0.36 0.37 0.41 0.45 0.52 0.59 0.70 1.06 1.60 2.18 2.70 3.03 3.03 2.95 3.07
0.49 0.53 0.53 0.53 0.53 0.51 0.55 0.56 0.53 0.45 0.46 0.43 0.22 0.12 0.16 0.23 0.29 0.29 0.28 0.27 0.26 0.29 0.31 0.36 0.41 0.43 0.44 0.46 0.50 0.57 0.67 0.93 1.36 1.99 2.59 2.83 2.80 2.80
0.53 0.57 0.62 0.66 0.67 0.68 0.72 0.70 0.66 0.62 0.53 0.47 0.34 0.25 0.24 0.27 0.34 0.35 0.31 0.31 0.34 0.35 0.33 0.33 0.38 0.43 0.44 0.42 0.39 0.42 0.54 0.79 1.09 1.46 1.99 2.40 2.53 2.52
0.55 0.59 0.62 0.71 0.85 0.99 1.08 1.00 0.84 0.79 0.70 0.61 0.49 0.37 0.33 0.37 0.45 0.42 0.41 0.35 0.38 0.44 0.41 0.34 0.32 0.31 0.36 0.43 0.46 0.46 0.48 0.57 0.76 1.07 1.48 1.94 2.26 2.31
0.50 0.48 0.50 0.56 0.66 0.77 0.92 0.91 0.85 0.94 0.95 0.83 0.69 0.58 0.46 0.43 0.51 0.57 0.59 0.54 0.48 0.45 0.46 0.44 0.40 0.39 0.37 0.37 0.46 0.48 0.51 0.56 0.62 0.79 1.10 1.46 1.85 2.16
0.36 0.36 0.37 0.40 0.46 0.47 0.56 0.58 0.63 0.71 0.84 0.92 0.93 0.76 0.63 0.56 0.63 0.71 0.73 0.70 0.54 0.51 0.56 0.63 0.60 0.54 0.49 0.49 0.54 0.49 0.50 0.54 0.62 0.70 0.82 1.09 1.45 1.82
0.30 0.33 0.33 0.35 0.41 0.50 0.55 0.49 0.44 0.46 0.62 0.79 0.97 0.91 0.80 0.79 0.89 0.98 0.99 0.95 0.82 0.73 0.70 0.79 0.80 0.74 0.68 0.63 0.60 0.52 0.49 0.48 0.51 0.62 0.75 0.90 1.11 1.43
0.26 0.33 0.35 0.32 0.38 0.48 0.54 0.48 0.37 0.35 0.40 0.56 0.73 0.83 0.85 0.92 1.05 1.20 1.21 1.18 1.17 1.13 0.99 0.94 0.93 0.88 0.86 0.84 0.75 0.65 0.55 0.49 0.45 0.51 0.63 0.79 0.98 1.21
0.20 0.28 0.41 0.42 0.39 0.41 0.45 0.45 0.42 0.35 0.29 0.28 0.32 0.43 0.56 0.70 0.91 1.15 1.23 1.21 1.22 1.31 1.24 1.10 1.10 1.02 1.06 0.99 0.81 0.67 0.58 0.57 0.50 0.47 0.52 0.64 0.82 1.02
0.24 0.29 0.36 0.39 0.35 0.34 0.37 0.41 0.45 0.35 0.27 0.25 0.24 0.25 0.35 0.50 0.70 0.97 1.18 1.23 1.21 1.23 1.19 1.13 1.19 1.13 1.04 1.01 0.87 0.73 0.62 0.54 0.46 0.45 0.48 0.55 0.70 0.82
0.29 0.24 0.29 0.31 0.27 0.28 0.28 0.32 0.30 0.29 0.31 0.27 0.23 0.22 0.26 0.39 0.51 0.70 0.96 1.08 1.11 1.12 1.06 1.07 1.13 1.03 0.94 0.85 0.85 0.83 0.73 0.64 0.52 0.42 0.39 0.52 0.64 0.77
0.33 0.37 0.30 0.23 0.20 0.18 0.18 0.22 0.23 0.25 0.32 0.28 0.21 0.17 0.20 0.29 0.38 0.48 0.67 0.87 0.96 0.98 1.00 1.00 1.07 1.04 0.97 0.85 0.75 0.75 0.79 0.81 0.68 0.54 0.46 0.43 0.46 0.57
0.28 0.32 0.29 0.20 0.15 0.12 0.10 0.12 0.16 0.22 0.25 0.24 0.17 0.14 0.15 0.21 0.30 0.40 0.54 0.71 0.86 0.92 0.97 1.01 1.13 1.24 1.17 0.93 0.79 0.76 0.71 0.80 0.78 0.64 0.53 0.47 0.44 0.45
0.34 0.30 0.27 0.22 0.18 0.15 0.11 0.09 0.11 0.16 0.21 0.21 0.18 0.16 0.17 0.20 0.25 0.33 0.47 0.59 0.74 0.81 0.91 1.06 1.19 1.29 1.39 1.31 1.12 0.92 0.77 0.69 0.70 0.67 0.59 0.54 0.54 0.52
0.34 0.30 0.23 0.18 0.15 0.13 0.12 0.11 0.10 0.11 0.13 0.16 0.17 0.17 0.17 0.19 0.23 0.28 0.38 0.51 0.62 0.69 0.79 0.96 1.13 1.26 1.46 1.67 1.51 1.13 0.87 0.76 0.75 0.74 0.65 0.58 0.60 0.63
0.27 0.20 0.15 0.13 0.13 0.12 0.11 0.10 0.09 0.07 0.09 0.13 0.14 0.15 0.15 0.17 0.21 0.25 0.31 0.41 0.52 0.60 0.71 0.85 1.01 1.15 1.24 1.43 1.63 1.38 1.05 0.88 0.83 0.86 0.80 0.62 0.56 0.60
0.18 0.15 0.14 0.12 0.12 0.12 0.11 0.10 0.09 0.09 0.11 0.12 0.12 0.13 0.15 0.17 0.20 0.22 0.27 0.37 0.46 0.54 0.63 0.75 0.93 1.09 1.14 1.10 1.21 1.36 1.33 1.06 0.87 0.88 0.91 0.82 0.74 0.78
0.13 0.12 0.12 0.13 0.12 0.11 0.10 0.10 0.10 0.10 0.09 0.09 0.10 0.12 0.13 0.16 0.18 0.19 0.23 0.30 0.40 0.49 0.56 0.63 0.78 0.95 1.14 1.17 1.14 1.16 1.28 1.36 1.11 0.91 0.88 0.89 0.91 0.93
0.12 0.12 0.12 0.12 0.13 0.12 0.11 0.11 0.10 0.09 0.09 0.09 0.09 0.10 0.11 0.14 0.16 0.18 0.22 0.28 0.35 0.42 0.50 0.56 0.65 0.83 1.11 1.27 1.26 1.16 1.18 1.34 1.46 1.29 1.04 0.86 0.83 0.86
0.15 0.15 0.14 0.13 0.13 0.13 0.12 0.12 0.11 0.09 0.08 0.08 0.08 0.09 0.10 0.12 0.13 0.17 0.20 0.25 0.31 0.37 0.45 0.53 0.61 0.76 1.03 1.22 1.30 1.25 1.17 1.18 1.24 1.30 1.38 1.18 0.87 0.75

GEFSNE_prec_meanprecacc_108.txt.gz
Total_Precipitation_Accumulation
0.24 0.26 0.29 0.28 0.27 0.27 0.31 0.42 0.57 0.41 0.11 0.03 0.05 0.08 0.12 0.15 0.21 0.27 0.27 0.32 0.37 0.41 0.49 0.56 0.57 0.59 0.71 1.03 1.73 2.56 3.18 3.26 2.93 2.42 2.10 2.17 2.38 2.75
0.27 0.31 0.33 0.33 0.32 0.31 0.33 0.35 0.47 0.57 0.35 0.07 0.06 0.09 0.14 0.16 0.21 0.25 0.24 0.30 0.34 0.38 0.39 0.42 0.49 0.56 0.63 0.75 1.02 1.67 2.42 3.01 3.21 3.05 2.73 2.57 2.65 2.92
0.32 0.36 0.35 0.36 0.40 0.40 0.40 0.40 0.40 0.48 0.47 0.13 0.05 0.08 0.16 0.22 0.22 0.23 0.23 0.24 0.27 0.34 0.37 0.36 0.39 0.45 0.53 0.61 0.73 1.06 1.70 2.35 2.91 3.23 3.31 3.14 3.02 2.98
0.43 0.43 0.42 0.42 0.44 0.45 0.49 0.48 0.43 0.41 0.48 0.30 0.09 0.08 0.14 0.23 0.26 0.26 0.24 0.23 0.23 0.29 0.33 0.37 0.38 0.42 0.46 0.53 0.61 0.72 1.08 1.63 2.21 2.73 3.06 3.08 3.00 3.13
0.49 0.53 0.53 0.53 0.53 0.52 0.55 0.57 0.53 0.46 0.46 0.44 0.23 0.13 0.17 0.23 0.29 0.30 0.28 0.27 0.26 0.29 0.31 0.36 0.41 0.45 0.45 0.48 0.53 0.60 0.70 0.96 1.38 2.02 2.63 2.87 2.85 2.85
0.53 0.57 0.62 0.66 0.68 0.68 0.73 0.71 0.67 0.63 0.54 0.49 0.36 0.26 0.25 0.27 0.34 0.35 0.32 0.31 0.34 0.35 0.34 0.33 0.38 0.43 0.45 0.43 0.40 0.44 0.57 0.82 1.12 1.49 2.02 2.43 2.56 2.56
0.55 0.59 0.63 0.72 0.86 1.01 1.11 1.02 0.87 0.83 0.74 0.66 0.53 0.40 0.36 0.39 0.46 0.43 0.42 0.36 0.39 0.44 0.41 0.34 0.32 0.32 0.36 0.43 0.47 0.48 0.50 0.60 0.79 1.10 1.52 1.98 2.29 2.34
0.51 0.49 0.50 0.57 0.67 0.79 0.95 0.96 0.90 0.99 1.02 0.90 0.76 0.64 0.50 0.45 0.53 0.60 0.62 0.58 0.50 0.46 0.46 0.44 0.40 0.39 0.37 0.37 0.46 0.49 0.52 0.58 0.65 0.82 1.15 1.51 1.90 2.21
0.36 0.37 0.37 0.41 0.48 0.48 0.57 0.61 0.66 0.75 0.89 0.99 1.00 0.82 0.67 0.59 0.68 0.77 0.78 0.73 0.56 0.53 0.57 0.64 0.60 0.54 0.49 0.49 0.55 0.50 0.51 0.56 0.64 0.74 0.87 1.14 1.50 1.88
0.30 0.34 0.34 0.36 0.41 0.51 0.56 0.50 0.45 0.47 0.63 0.81 1.00 0.94 0.83 0.82 0.93 1.04 1.04 1.00 0.86 0.74 0.72 0.82 0.80 0.74 0.69 0.63 0.60 0.52 0.49 0.49 0.53 0.64 0.79 0.95 1.17 1.49
0.26 0.33 0.36 0.33 0.39 0.51 0.57 0.51 0.39 0.37 0.41 0.59 0.77 0.86 0.89 0.97 1.12 1.29 1.31 1.29 1.26 1.16 1.01 0.96 0.94 0.89 0.87 0.84 0.75 0.65 0.56 0.49 0.46 0.52 0.66 0.82 1.03 1.26
0.20 0.28 0.42 0.44 0.42 0.44 0.49 0.49 0.46 0.38 0.31 0.30 0.34 0.45 0.58 0.72 0.95 1.21 1.31 1.31 1.31 1.37 1.26 1.12 1.11 1.04 1.08 0.99 0.81 0.67 0.59 0.57 0.51 0.48 0.53 0.66 0.86 1.06
0.26 0.30 0.37 0.41 0.37 0.38 0.41 0.44 0.48 0.39 0.30 0.28 0.26 0.28 0.37 0.52 0.71 0.99 1.22 1.29 1.28 1.29 1.21 1.15 1.22 1.15 1.06 1.02 0.87 0.73 0.62 0.54 0.46 0.46 0.49 0.57 0.73 0.87
0.31 0.26 0.30 0.33 0.30 0.31 0.31 0.35 0.34 0.33 0.35 0.31 0.26 0.24 0.28 0.40 0.53 0.71 0.97 1.10 1.13 1.14 1.08 1.10 1.18 1.06 0.96 0.88 0.86 0.83 0.73 0.64 0.52 0.43 0.39 0.53 0.66 0.80
0.35 0.39 0.32 0.26 0.23 0.20 0.20 0.24 0.25 0.27 0.34 0.31 0.23 0.19 0.21 0.31 0.39 0.50 0.68 0.88 0.97 1.00 1.03 1.05 1.12 1.08 1.01 0.89 0.76 0.75 0.79 0.81 0.68 0.55 0.46 0.43 0.47 0.59
0.30 0.33 0.31 0.21 0.16 0.13 0.11 0.13 0.17 0.23 0.27 0.26 0.19 0.15 0.16 0.23 0.32 0.43 0.57 0.74 0.90 0.95 0.99 1.04 1.17 1.28 1.22 0.96 0.82 0.78 0.72 0.80 0.78 0.64 0.53 0.47 0.45 0.46
0.37 0.33 0.28 0.23 0.19 0.15 0.12 0.10 0.11 0.16 0.22 0.22 0.20 0.19 0.19 0.22 0.27 0.35 0.50 0.63 0.78 0.84 0.93 1.09 1.21 1.32 1.44 1.35 1.17 0.95 0.78 0.70 0.71 0.67 0.60 0.55 0.55 0.52
0.37 0.33 0.24 0.19 0.15 0.14 0.13 0.11 0.10 0.12 0.14 0.17 0.20 0.19 0.20 0.22 0.26 0.30 0.41 0.54 0.66 0.71 0.81 0.98 1.16 1.32 1.54 1.73 1.53 1.15 0.89 0.77 0.76 0.74 0.65 0.59 0.61 0.63
0.29 0.22 0.16 0.14 0.13 0.12 0.11 0.11 0.10 0.08 0.10 0.15 0.17 0.17 0.18 0.21 0.25 0.29 0.35 0.44 0.54 0.62 0.73 0.87 1.04 1.19 1.29 1.46 1.64 1.39 1.06 0.89 0.84 0.87 0.81 0.63 0.57 0.60
0.19 0.16 0.15 0.13 0.12 0.12 0.12 0.11 0.10 0.10 0.12 0.13 0.14 0.15 0.17 0.20 0.23 0.25 0.30 0.39 0.48 0.56 0.65 0.78 0.95 1.10 1.16 1.11 1.23 1.37 1.34 1.07 0.89 0.90 0.92 0.82 0.74 0.79
0.14 0.13 0.13 0.14 0.13 0.12 0.11 0.11 0.11 0.11 0.10 0.11 0.12 0.13 0.15 0.19 0.21 0.21 0.25 0.32 0.43 0.52 0.58 0.64 0.79 0.96 1.16 1.20 1.18 1.17 1.28 1.36 1.12 0.92 0.89 0.90 0.93 0.94
0.13 0.13 0.13 0.13 0.14 0.14 0.13 0.12 0.12 0.11 0.10 0.11 0.11 0.11 0.13 0.16 0.19 0.20 0.24 0.30 0.37 0.44 0.52 0.57 0.65 0.85 1.14 1.31 1.28 1.17 1.18 1.34 1.47 1.31 1.06 0.88 0.85 0.87
0.16 0.16 0.15 0.14 0.15 0.15 0.14 0.13 0.12 0.10 0.09 0.10 0.10 0.10 0.12 0.14 0.15 0.19 0.23 0.27 0.33 0.39 0.47 0.55 0.63 0.78 1.05 1.23 1.31 1.27 1.18 1.19 1.25 1.32 1.40 1.19 0.88 0.76

GEFSNE_prec_meanprecacc_114.txt.gz
Total_Precipitation_Accumulation
0.24 0.26 0.29 0.28 0.27 0.27 0.31 0.42 0.58 0.42 0.11 0.03 0.05 0.08 0.12 0.15 0.21 0.27 0.27 0.32 0.37 0.42 0.50 0.56 0.58 0.59 0.72 1.04 1.74 2.58 3.20 3.27 2.95 2.45 2.15 2.26 2.51 2.92
0.27 0.31 0.33 0.33 0.32 0.31 0.33 0.35 0.47 0.58 0.35 0.07 0.06 0.09 0.14 0.16 0.21 0.25 0.24 0.30 0.34 0.38 0.40 0.43 0.50 0.57 0.64 0.76 1.03 1.68 2.43 3.02 3.22 3.07 2.76 2.63 2.73 3.04
0.32 0.36 0.35 0.36 0.40 0.40 0.40 0.40 0.40 0.48 0.48 0.13 0.05 0.08 0.16 0.22 0.22 0.23 0.23 0.24 0.27 0.34 0.37 0.37 0.40 0.46 0.54 0.62 0.75 1.08 1.73 2.37 2.94 3.26 3.34 3.18 3.08 3.06
0.43 0.43 0.42 0.42 0.44 0.45 0.49 0.49 0.44 0.42 0.48 0.30 0.09 0.08 0.14 0.23 0.27 0.26 0.24 0.23 0.23 0.29 0.34 0.38 0.39 0.43 0.48 0.55 0.63 0.74 1.11 1.65 2.24 2.76 3.10 3.12 3.05 3.20
0.49 0.53 0.53 0.53 0.53 0.52 0.55 0.57 0.53 0.46 0.47 0.45 0.23 0.13 0.17 0.24 0.29 0.30 0.28 0.27 0.26 0.29 0.31 0.36 0.42 0.46 0.47 0.49 0.55 0.62 0.72 0.99 1.41 2.05 2.66 2.91 2.90 2.92
0.53 0.58 0.62 0.67 0.68 0.69 0.73 0.71 0.68 0.64 0.55 0.50 0.38 0.27 0.26 0.28 0.35 0.36 0.32 0.31 0.35 0.35 0.34 0.33 0.38 0.44 0.46 0.45 0.42 0.47 0.60 0.85 1.16 1.53 2.06 2.47 2.60 2.62
0.55 0.59 0.63 0.72 0.87 1.02 1.12 1.04 0.89 0.86 0.78 0.70 0.57 0.43 0.38 0.41 0.48 0.44 0.44 0.36 0.39 0.44 0.41 0.34 0.32 0.32 0.36 0.44 0.48 0.49 0.52 0.63 0.83 1.15 1.57 2.03 2.34 2.39
0.51 0.49 0.51 0.57 0.68 0.81 0.98 0.98 0.93 1.03 1.05 0.94 0.80 0.68 0.52 0.47 0.54 0.62 0.64 0.60 0.52 0.46 0.46 0.44 0.40 0.39 0.37 0.37 0.46 0.49 0.53 0.59 0.68 0.86 1.19 1.56 1.95 2.26
0.37 0.37 0.37 0.41 0.48 0.49 0.58 0.61 0.67 0.76 0.91 1.02 1.05 0.85 0.69 0.60 0.70 0.79 0.80 0.76 0.59 0.54 0.59 0.65 0.60 0.54 0.49 0.49 0.55 0.50 0.52 0.57 0.65 0.76 0.90 1.18 1.54 1.93
0.30 0.34 0.34 0.36 0.41 0.52 0.57 0.51 0.46 0.48 0.64 0.83 1.02 0.95 0.84 0.83 0.96 1.08 1.09 1.06 0.90 0.76 0.74 0.84 0.81 0.75 0.69 0.63 0.60 0.52 0.50 0.49 0.54 0.66 0.81 0.98 1.20 1.53
0.26 0.33 0.36 0.33 0.39 0.53 0.59 0.52 0.40 0.37 0.42 0.60 0.80 0.90 0.93 1.03 1.19 1.38 1.42 1.40 1.35 1.20 1.02 0.98 0.95 0.89 0.87 0.84 0.75 0.65 0.56 0.50 0.47 0.54 0.68 0.85 1.06 1.31
0.21 0.28 0.42 0.45 0.44 0.47 0.51 0.51 0.48 0.39 0.31 0.31 0.35 0.47 0.60 0.74 0.98 1.25 1.36 1.39 1.39 1.42 1.27 1.13 1.12 1.05 1.09 0.99 0.81 0.67 0.59 0.57 0.52 0.49 0.55 0.69 0.90 1.10
0.27 0.30 0.37 0.42 0.39 0.40 0.44 0.47 0.51 0.42 0.33 0.31 0.29 0.30 0.39 0.53 0.72 1.01 1.24 1.33 1.34 1.35 1.24 1.18 1.25 1.18 1.09 1.03 0.87 0.73 0.62 0.54 0.46 0.46 0.50 0.59 0.75 0.91
0.32 0.26 0.30 0.34 0.33 0.34 0.34 0.37 0.37 0.37 0.37 0.33 0.28 0.25 0.29 0.41 0.53 0.72 0.98 1.12 1.16 1.17 1.10 1.13 1.23 1.11 1.01 0.91 0.87 0.84 0.73 0.64 0.52 0.43 0.40 0.53 0.68 0.83
0.36 0.40 0.34 0.28 0.25 0.22 0.21 0.25 0.27 0.28 0.35 0.32 0.24 0.20 0.22 0.31 0.40 0.51 0.69 0.90 0.99 1.02 1.05 1.07 1.16 1.12 1.06 0.93 0.78 0.76 0.79 0.81 0.68 0.55 0.46 0.43 0.47 0.60
0.31 0.35 0.33 0.23 0.17 0.13 0.11 0.13 0.17 0.24 0.28 0.28 0.20 0.16 0.16 0.23 0.33 0.44 0.58 0.76 0.93 0.97 1.00 1.06 1.19 1.32 1.28 1.00 0.84 0.79 0.72 0.81 0.78 0.64 0.53 0.47 0.45 0.46
0.41 0.36 0.31 0.24 0.20 0.16 0.12 0.10 0.11 0.17 0.22 0.23 0.21 0.20 0.20 0.23 0.28 0.36 0.52 0.66 0.82 0.87 0.95 1.10 1.24 1.35 1.47 1.39 1.20 0.96 0.78 0.70 0.71 0.67 0.60 0.55 0.55 0.53
0.41 0.37 0.26 0.20 0.16 0.15 0.14 0.12 0.10 0.12 0.14 0.18 0.21 0.21 0.22 0.24 0.27 0.32 0.43 0.57 0.69 0.73 0.82 0.99 1.18 1.37 1.59 1.77 1.56 1.16 0.89 0.77 0.76 0.74 0.65 0.59 0.61 0.63
0.31 0.24 0.17 0.15 0.14 0.13 0.12 0.12 0.11 0.09 0.11 0.16 0.18 0.19 0.20 0.22 0.26 0.31 0.37 0.47 0.57 0.64 0.74 0.89 1.07 1.24 1.33 1.48 1.65 1.39 1.07 0.90 0.85 0.87 0.81 0.63 0.57 0.61
0.20 0.17 0.16 0.14 0.13 0.13 0.12 0.12 0.11 0.11 0.13 0.15 0.16 0.16 0.19 0.23 0.25 0.27 0.31 0.41 0.50 0.58 0.68 0.80 0.97 1.13 1.18 1.12 1.23 1.37 1.34 1.07 0.90 0.90 0.92 0.82 0.74 0.79
0.14 0.14 0.14 0.15 0.15 0.14 0.12 0.12 0.13 0.12 0.11 0.12 0.13 0.15 0.17 0.21 0.23 0.23 0.27 0.34 0.45 0.54 0.60 0.66 0.80 0.97 1.18 1.24 1.21 1.18 1.29 1.37 1.12 0.93 0.89 0.91 0.94 0.95
0.14 0.14 0.13 0.14 0.15 0.15 0.14 0.14 0.14 0.12 0.11 0.12 0.12 0.13 0.14 0.18 0.21 0.22 0.26 0.33 0.39 0.46 0.53 0.58 0.67 0.87 1.18 1.34 1.29 1.17 1.19 1.35 1.47 1.31 1.06 0.89 0.86 0.88
0.18 0.18 0.16 0.16 0.16 0.16 0.16 0.15 0.14 0.12 0.10 0.11 0.12 0.12 0.14 0.16 0.17 0.21 0.25 0.29 0.36 0.41 0.48 0.57 0.65 0.81 1.08 1.25 1.32 1.27 1.19 1.19 1.27 1.34 1.41 1.20 0.89 0.77